{"data":{"norad_id":64951,"intl_designator":"2025-158V","name":"STARLINK-34738","alt_names":[],"object_type":"PAYLOAD","status":"ACTIVE","operator":null,"country":"US","launch_date":"2025-07-27","launch_site_code":"AFWTR","launch_vehicle":null,"mission":null,"orbit_class":"UNKNOWN","rcs_meters":null,"size_class":null,"mass_kg":null,"dimensions":null,"purposes":["comms"],"wikipedia_slug":null,"has_3d_model":false,"image_url":null,"decayed_at":null,"tle_current":{"epoch":"2026-05-25T03:33:06.246144Z","epoch_age_seconds":58695,"freshness":"FRESH","line1":"1 64951U 25158V   26145.14798896  .00005383  00000+0  37675-3 0  9995","line2":"2 64951  97.4490   9.1180 0002665  78.9010 281.2517 15.05661684 46865","mean_motion":15.05661684,"eccentricity":0.0002665,"inclination_deg":97.449,"raan_deg":9.118,"arg_perigee_deg":78.901,"mean_anomaly_deg":281.2517,"bstar":0.00037675,"rev_number":4686,"period_min":95.639014746954,"perigee_km":547.62910607736,"apogee_km":551.32152344113,"semimajor_km":6927.6123147592,"source":"CELESTRAK","updated_at":"2026-05-25T13:38:20.635152Z"}}}